EW5836 Weather Reports


Display with metric or nautical units.
time (UTC)temp
F
wind
direction
speed
MPH
gust
MPH
rain 1hr
in
rain 24hr
in
rain mn
in
humidity
%
barometer
mb
20260505024549 55 10 0.0 0.0 0.00 0.04 0.01 82 1013.8
20260505024059 55 10 0.0 0.0 0.00 0.04 0.01 82 1013.8
20260505023536 56 10 0.0 0.0 0.00 0.04 0.01 81 1013.9
20260505023044 56 10 0.0 0.0 0.00 0.04 0.01 80 1013.9
20260505022610 56 10 0.0 0.0 0.00 0.04 0.01 79 1013.9
20260505022043 56 10 0.0 0.0 0.00 0.04 0.01 77 1013.9
20260505021544 56 10 0.0 0.0 0.00 0.04 0.01 76 1014.0
20260505021119 56 10 0.0 0.0 0.00 0.04 0.01 76 1014.1
20260505020654 56 10 0.0 2.0 0.04 0.04 0.01 75 1014.0
20260505020044 56 10 0.0 7.0 0.04 0.04 0.01 75 1014.1
20260505015548 57 326 3.0 9.0 0.04 0.04 0.01 74 1014.1
20260505015040 56 321 5.0 11.0 0.04 0.04 0.01 74 1014.1
20260505014543 56 332 6.0 11.0 0.04 0.04 0.01 75 1014.3
20260505014031 56 292 7.0 10.0 0.04 0.04 0.01 76 1014.5
20260505013534 55 314 5.0 11.0 0.04 0.04 0.01 77 1014.6
20260505013039 56 331 8.0 12.0 0.04 0.04 0.01 77 1014.7
20260505012543 56 330 9.0 12.0 0.04 0.04 0.01 77 1014.7
20260505012057 56 318 6.0 11.0 0.04 0.04 0.01 75 1014.8
20260505011557 56 330 5.0 12.0 0.04 0.04 0.01 76 1015.0
20260505011038 56 311 5.0 12.0 0.04 0.04 0.01 76 1015.2
20260505010541 56 314 5.0 9.0 0.00 0.00 0.00 75 1015.3
20260505010050 56 312 5.0 8.0 0.00 0.00 0.00 75 1015.4
20260505005610 57 314 5.0 9.0 0.00 0.00 0.00 73 1015.6
20260505005056 58 317 5.0 9.0 0.00 0.00 0.00 71 1015.7
20260505004531 58 320 5.0 9.0 0.00 0.00 0.00 68 1015.8
20260505004056 58 321 6.0 9.0 0.00 0.00 0.00 66 1015.9
20260505003532 58 319 4.0 6.0 0.00 0.00 0.00 68 1016.0
20260505003040 57 304 2.0 5.0 0.00 0.00 0.00 70 1016.0
20260505002543 57 302 1.0 4.0 0.00 0.00 0.00 72 1016.0
20260505002045 58 302 0.0 1.0 0.00 0.00 0.00 72 1016.0
20260505001550 58 303 0.0 1.0 0.00 0.00 0.00 69 1016.0
20260505001033 58 302 0.0 3.0 0.00 0.00 0.00 69 1016.1
20260505000535 58 302 0.0 4.0 0.00 0.00 0.00 70 1016.1
20260505000034 58 302 0.0 2.0 0.00 0.00 0.00 70 1016.1
20260504235538 58 302 0.0 4.0 0.00 0.00 0.00 70 1016.2
20260504235047 58 302 1.0 4.0 0.00 0.00 0.00 69 1016.4
20260504234552 59 301 0.0 2.0 0.00 0.00 0.00 67 1016.5
20260504234045 59 313 0.0 0.0 0.00 0.00 0.00 65 1016.5
20260504233550 59 318 0.0 4.0 0.00 0.00 0.00 65 1016.5
20260504233041 59 318 2.0 4.0 0.00 0.00 0.00 66 1016.6
20260504232543 59 288 0.0 0.0 0.00 0.00 0.00 67 1016.8
20260504232119 59 288 0.0 0.0 0.00 0.00 0.00 65 1016.8
20260504231535 59 288 0.0 0.0 0.00 0.00 0.00 65 1016.9
20260504231050 59 288 0.0 0.0 0.00 0.00 0.00 65 1016.8
20260504230554 60 288 0.0 0.0 0.00 0.00 0.00 64 1016.8
20260504230044 60 288 0.0 0.0 0.00 0.00 0.00 63 1016.8
20260504225608 60 288 0.0 0.0 0.00 0.00 0.00 63 1016.8
20260504225038 59 288 0.0 0.0 0.00 0.00 0.00 64 1016.9
20260504224603 59 288 0.0 0.0 0.00 0.00 0.00 66 1016.9
20260504224058 59 288 0.0 0.0 0.00 0.00 0.00 64 1016.8
20260504223538 59 288 0.0 0.0 0.00 0.00 0.00 66 1016.8
20260504223058 59 288 0.0 0.0 0.00 0.00 0.00 66 1016.9
20260504222542 58 288 0.0 0.0 0.00 0.00 0.00 66 1016.8
20260504222055 58 288 0.0 0.0 0.00 0.00 0.00 67 1016.9
20260504221532 59 288 0.0 0.0 0.00 0.00 0.00 66 1016.8
20260504221040 59 288 0.0 0.0 0.00 0.00 0.00 66 1016.8
20260504220536 59 288 0.0 0.0 0.00 0.00 0.00 63 1016.9
20260504220048 59 289 0.0 0.0 0.00 0.00 0.00 64 1016.9
20260504215605 59 289 0.0 0.0 0.00 0.00 0.00 64 1016.9
20260504215104 59 289 0.0 0.0 0.00 0.00 0.00 63 1017.1
20260504214546 59 284 0.0 0.0 0.00 0.00 0.00 62 1017.1
20260504214037 59 284 0.0 0.0 0.00 0.00 0.00 62 1017.2
20260504213542 59 283 0.0 0.0 0.00 0.00 0.00 62 1017.3
20260504213103 59 283 0.0 0.0 0.00 0.00 0.00 64 1017.3
20260504212542 60 283 0.0 0.0 0.00 0.00 0.00 63 1017.3
20260504212055 60 283 0.0 0.0 0.00 0.00 0.00 63 1017.4
20260504211532 60 258 0.0 0.0 0.00 0.00 0.00 61 1017.4
20260504211044 61 258 0.0 0.0 0.00 0.00 0.00 61 1017.4
20260504210549 61 258 0.0 0.0 0.00 0.00 0.00 59 1017.4
20260504210038 61 264 0.0 0.0 0.00 0.00 0.00 57 1017.4
20260504205605 62 341 0.0 0.0 0.00 0.00 0.00 57 1017.5
20260504205035 62 347 0.0 0.0 0.00 0.00 0.00 56 1017.5
20260504204540 62 349 0.0 0.0 0.00 0.00 0.00 58 1017.4
20260504204030 62 349 0.0 0.0 0.00 0.00 0.00 56 1017.6
20260504203553 62 347 0.0 0.0 0.00 0.00 0.00 56 1017.7
20260504203046 62 347 0.0 0.0 0.00 0.00 0.00 56 1017.8
20260504202549 62 347 0.0 0.0 0.00 0.00 0.00 55 1017.8
20260504202036 63 347 0.0 0.0 0.00 0.00 0.00 55 1017.7
20260504201542 63 347 0.0 0.0 0.00 0.00 0.00 55 1017.7
20260504201031 63 345 0.0 0.0 0.00 0.00 0.00 53 1017.6
20260504200534 63 345 0.0 3.0 0.00 0.00 0.00 54 1017.4
20260504200042 63 345 1.0 3.0 0.00 0.00 0.00 54 1017.5
20260504195542 64 181 0.0 5.0 0.00 0.00 0.00 51 1017.4
20260504195034 65 193 0.0 5.0 0.00 0.00 0.00 50 1017.4
20260504194540 65 183 1.0 11.0 0.00 0.00 0.00 46 1017.3
20260504194101 65 64 4.0 15.0 0.00 0.00 0.00 46 1017.1
20260504193544 65 349 9.0 15.0 0.00 0.00 0.00 48 1017.1
20260504193053 64 324 10.0 14.0 0.00 0.00 0.00 49 1017.0
20260504192549 65 316 8.0 19.0 0.00 0.00 0.00 46 1016.9
20260504192039 64 327 11.0 19.0 0.00 0.00 0.00 50 1016.9
20260504191604 61 330 7.0 13.0 0.00 0.00 0.00 63 1017.1
20260504191058 61 298 1.0 4.0 0.00 0.00 0.00 65 1017.3
20260504190540 62 256 0.0 4.0 0.00 0.00 0.00 65 1017.3
20260504190034 62 259 1.0 4.0 0.00 0.00 0.00 65 1017.2
20260504185537 62 260 0.0 0.0 0.00 0.00 0.00 65 1017.1
20260504185036 62 316 0.0 8.0 0.00 0.00 0.00 61 1017.1
20260504184539 62 316 3.0 10.0 0.00 0.00 0.00 61 1017.0
20260504184039 62 311 3.0 10.0 0.00 0.00 0.00 65 1017.0
20260504183542 62 309 1.0 8.0 0.00 0.00 0.00 67 1017.0
20260504183104 62 309 1.0 4.0 0.00 0.00 0.00 68 1017.0
20260504182541 62 294 0.0 3.0 0.00 0.00 0.00 70 1017.0
20260504182055 62 286 0.0 3.0 0.00 0.00 0.00 68 1017.0
20260504181547 62 234 0.0 3.0 0.00 0.00 0.00 69 1017.0
20260504181037 62 283 0.0 1.0 0.00 0.00 0.00 69 1017.0
20260504180541 62 284 0.0 5.0 0.00 0.00 0.00 69 1016.9
20260504180034 62 251 1.0 7.0 0.00 0.00 0.00 70 1017.0
20260504175601 63 233 1.0 7.0 0.00 0.00 0.00 70 1016.9
20260504175033 63 224 2.0 4.0 0.00 0.00 0.00 70 1017.0
20260504174559 63 250 0.0 4.0 0.00 0.00 0.00 70 1016.9
20260504174044 63 245 1.0 4.0 0.00 0.00 0.00 70 1017.0
20260504173550 63 320 0.0 2.0 0.00 0.00 0.00 71 1017.0
20260504173105 63 326 0.0 0.0 0.00 0.00 0.00 72 1017.0
20260504172550 63 326 0.0 0.0 0.00 0.00 0.00 73 1017.0
20260504172108 63 326 0.0 0.0 0.00 0.00 0.00 73 1017.0
20260504171611 63 326 0.0 0.0 0.00 0.00 0.00 75 1016.9
20260504171042 63 326 0.0 0.0 0.00 0.00 0.00 74 1017.0
20260504170547 63 326 0.0 0.0 0.00 0.00 0.00 72 1017.0
20260504151041 66 91 0.0 0.0 0.00 0.00 0.00 60 1017.2
20260504150544 66 91 0.0 0.0 0.00 0.00 0.00 60 1017.3
20260504141038 66 153 0.0 1.0 0.00 0.00 0.00 57 1017.7
20260504140543 66 153 0.0 3.0 0.00 0.00 0.00 57 1017.8
20260504130545 67 293 1.0 9.0 0.00 0.00 0.00 54 1018.2
20260504110535 65 142 0.0 7.0 0.00 0.00 0.00 59 1018.9
20260504110111 65 140 0.0 7.0 0.00 0.00 0.00 59 1018.9
20260504100610 65 118 0.0 4.0 0.00 0.00 0.00 61 1018.9
20260504081603 62 121 0.0 0.0 0.00 0.00 0.00 60 1018.9
20260504081034 62 120 0.0 0.0 0.00 0.00 0.00 59 1019.0
20260504080537 62 121 0.0 0.0 0.00 0.00 0.00 60 1019.0
20260504050539 57 299 0.0 0.0 0.00 0.00 0.00 72 1017.7
20260504045530 57 299 0.0 0.0 0.00 0.00 0.00 72 1017.5
20260504045040 57 299 0.0 0.0 0.00 0.00 0.00 72 1017.6
20260504044545 57 299 0.0 0.0 0.00 0.00 0.00 70 1017.4
20260504044036 57 299 0.0 0.0 0.00 0.00 0.00 69 1017.3
20260504043539 57 299 0.0 0.0 0.00 0.00 0.00 68 1017.2
20260504043059 57 299 0.0 0.0 0.00 0.00 0.00 70 1017.3
20260504042534 57 299 0.0 0.0 0.00 0.00 0.00 67 1017.3
20260504042043 57 299 0.0 0.0 0.00 0.00 0.00 68 1017.2
20260504041549 58 299 0.0 0.0 0.00 0.00 0.00 67 1017.1
20260504041109 57 299 0.0 0.0 0.00 0.00 0.00 69 1017.2
20260504040550 57 299 0.0 0.0 0.00 0.00 0.00 69 1017.2
20260504040042 57 299 0.0 0.0 0.00 0.00 0.00 70 1017.2
20260504035547 57 299 0.0 0.0 0.00 0.00 0.00 70 1017.1
20260504035037 57 299 0.0 3.0 0.00 0.00 0.00 69 1017.1
20260504034541 57 299 1.0 3.0 0.00 0.00 0.00 68 1017.1
20260504034031 57 299 1.0 3.0 0.00 0.00 0.00 70 1017.1
20260504033557 57 299 0.0 4.0 0.00 0.00 0.00 70 1017.2
20260504033038 57 259 1.0 4.0 0.00 0.00 0.00 69 1017.4
20260504032542 57 286 0.0 0.0 0.00 0.00 0.00 69 1017.3
20260504032054 57 286 0.0 0.0 0.00 0.00 0.00 68 1017.2
20260504031539 57 286 0.0 0.0 0.00 0.00 0.00 69 1017.2
20260504031100 57 286 0.0 0.0 0.00 0.00 0.00 71 1017.2
20260504030533 57 286 0.0 0.0 0.00 0.00 0.00 72 1017.4
20260504030041 57 285 0.0 7.0 0.00 0.00 0.00 71 1017.4
20260504025545 57 257 2.0 7.0 0.00 0.00 0.00 69 1017.4
20260504025032 57 335 0.0 0.0 0.00 0.00 0.00 67 1017.3